| time (UTC) | temp F | wind direction | speed MPH | gust MPH | rain 1hr in | rain 24hr in | rain mn in | humidity % | barometer mb |
| 20260510190008 | 81 | 138 | 6.0 | 13.0 | 0.00 | 0.37 | 0.00 | 69 | 1015.7 |
| 20260510184519 | 82 | 118 | 4.0 | 11.0 | 0.00 | 0.45 | 0.00 | 71 | 1015.7 |
| 20260510183012 | 81 | 146 | 6.0 | 13.0 | 0.00 | 0.48 | 0.00 | 70 | 1015.9 |
| 20260510181506 | 81 | 107 | 4.0 | 11.0 | 0.00 | 0.51 | 0.00 | 71 | 1016.0 |
| 20260510180007 | 82 | 121 | 4.0 | 10.0 | 0.00 | 0.56 | 0.00 | 72 | 1016.1 |
| 20260510174512 | 84 | 113 | 3.0 | 7.0 | 0.00 | 0.61 | 0.00 | 67 | 1016.3 |
| 20260510173009 | 83 | 193 | 3.0 | 9.0 | 0.00 | 0.72 | 0.00 | 68 | 1016.4 |
| 20260510171519 | 83 | 142 | 1.0 | 8.0 | 0.00 | 0.75 | 0.00 | 69 | 1016.5 |
| 20260510170008 | 83 | 44 | 3.0 | 8.0 | 0.00 | 0.95 | 0.00 | 67 | 1016.6 |
| 20260510164510 | 82 | 88 | 1.0 | 6.0 | 0.00 | 0.97 | 0.00 | 71 | 1016.8 |
| 20260510163015 | 81 | 59 | 1.0 | 8.0 | 0.00 | 0.99 | 0.00 | 75 | 1016.9 |
| 20260510161511 | 80 | 106 | 1.0 | 6.0 | 0.00 | 1.04 | 0.00 | 76 | 1016.8 |
| 20260510160011 | 79 | 30 | 2.0 | 6.0 | 0.00 | 1.08 | 0.00 | 77 | 1016.7 |
| 20260510154523 | 79 | 226 | 1.0 | 5.0 | 0.00 | 1.11 | 0.00 | 78 | 1016.6 |
| 20260510153022 | 78 | 38 | 2.0 | 8.0 | 0.00 | 1.16 | 0.00 | 79 | 1016.6 |
| 20260510151510 | 77 | 115 | 1.0 | 6.0 | 0.00 | 1.25 | 0.00 | 81 | 1016.5 |
| 20260510150006 | 76 | 130 | 1.0 | 5.0 | 0.00 | 1.37 | 0.00 | 84 | 1016.8 |
| 20260510144512 | 73 | 165 | 1.0 | 3.0 | 0.00 | 1.46 | 0.00 | 89 | 1016.9 |
| 20260510143013 | 72 | 46 | 2.0 | 5.0 | 0.00 | 1.56 | 0.00 | 92 | 1017.0 |
| 20260510141517 | 70 | 103 | 3.0 | 7.0 | 0.00 | 1.59 | 0.00 | 97 | 1017.0 |
| 20260510140006 | 70 | 173 | 0.0 | 3.0 | 0.00 | 1.61 | 0.00 | 99 | 1016.9 |
| 20260510134509 | 69 | 68 | 1.0 | 5.0 | 0.00 | 1.65 | 0.00 | 99 | 1016.7 |
| 20260510133012 | 68 | 92 | 3.0 | 5.0 | 0.00 | 1.73 | 0.00 | 99 | 1016.6 |
| 20260510131516 | 67 | 55 | 2.0 | 4.0 | 0.00 | 1.98 | 0.00 | 99 | 1016.4 |
| 20260510130018 | 67 | 67 | 2.0 | 4.0 | 0.00 | 2.55 | 0.00 | 99 | 1016.3 |
| 20260510124507 | 66 | 37 | 1.0 | 5.0 | 0.00 | 2.88 | 0.00 | 99 | 1016.2 |
| 20260510123020 | 66 | 57 | 1.0 | 3.0 | 0.00 | 2.88 | 0.00 | 99 | 1016.1 |
| 20260510121512 | 66 | 57 | 0.0 | 0.0 | 0.00 | 2.88 | 0.00 | 99 | 1016.0 |
| 20260510120018 | 65 | 70 | 0.0 | 1.0 | 0.00 | 2.88 | 0.00 | 99 | 1015.6 |
| 20260510114508 | 65 | 57 | 1.0 | 3.0 | 0.00 | 2.88 | 0.00 | 99 | 1015.1 |
| 20260510113007 | 65 | 109 | 0.0 | 4.0 | 0.00 | 2.88 | 0.00 | 99 | 1014.8 |
| 20260510111512 | 65 | 97 | 1.0 | 3.0 | 0.00 | 2.88 | 0.00 | 99 | 1014.4 |
| 20260510110028 | 65 | 54 | 1.0 | 3.0 | 0.00 | 2.88 | 0.00 | 99 | 1014.3 |
| 20260510104521 | 65 | 40 | 0.0 | 3.0 | 0.00 | 2.88 | 0.00 | 99 | 1013.9 |
| 20260510103004 | 65 | 70 | 1.0 | 4.0 | 0.00 | 2.88 | 0.00 | 99 | 1013.7 |
| 20260510101511 | 65 | 64 | 0.0 | 2.0 | 0.00 | 2.88 | 0.00 | 99 | 1013.5 |
| 20260510100013 | 65 | 31 | 1.0 | 4.0 | 0.00 | 2.88 | 0.00 | 99 | 1013.4 |
| 20260510094534 | 65 | 65 | 0.0 | 4.0 | 0.00 | 2.88 | 0.00 | 99 | 1013.4 |
| 20260510093023 | 65 | 352 | 2.0 | 4.0 | 0.00 | 2.96 | 0.00 | 99 | 1013.3 |
| 20260510091507 | 65 | 13 | 5.0 | 10.0 | 0.00 | 3.67 | 0.00 | 99 | 1013.3 |
| 20260510090011 | 65 | 302 | 1.0 | 5.0 | 0.00 | 4.86 | 0.00 | 99 | 1013.2 |
| 20260510084517 | 66 | 42 | 2.0 | 2.0 | 0.00 | 4.88 | 0.00 | 99 | 1013.2 |
| 20260510083023 | 66 | 70 | 0.0 | 0.0 | 0.00 | 4.88 | 0.00 | 99 | 1013.0 |
| 20260510081529 | 66 | 74 | 0.0 | 1.0 | 0.00 | 4.88 | 0.00 | 99 | 1013.0 |
| 20260510080038 | 66 | 66 | 0.0 | 3.0 | 0.00 | 4.88 | 0.00 | 99 | 1012.8 |
| 20260510074513 | 66 | 45 | 1.0 | 4.0 | 0.00 | 4.88 | 0.00 | 99 | 1012.8 |
| 20260510073033 | 66 | 88 | 2.0 | 4.0 | 0.00 | 4.88 | 0.00 | 99 | 1012.7 |
| 20260510071523 | 66 | 23 | 2.0 | 7.0 | 0.00 | 4.88 | 0.00 | 99 | 1012.7 |
| 20260510070008 | 67 | 10 | 1.0 | 4.0 | 0.00 | 4.88 | 0.00 | 98 | 1012.9 |
| 20260510064512 | 67 | 46 | 1.0 | 3.0 | 0.00 | 4.88 | 0.00 | 98 | 1012.8 |
| 20260510063019 | 67 | 27 | 0.0 | 2.0 | 0.00 | 4.88 | 0.00 | 98 | 1012.8 |
| 20260510061504 | 67 | 5 | 2.0 | 4.0 | 0.00 | 4.88 | 0.00 | 98 | 1012.9 |
| 20260510060018 | 67 | 5 | 0.0 | 2.0 | 0.00 | 4.88 | 0.00 | 98 | 1013.1 |
| 20260510054517 | 67 | 98 | 3.0 | 4.0 | 0.00 | 4.88 | 0.00 | 98 | 1012.9 |
| 20260510053000 | 67 | 38 | 0.0 | 0.0 | 0.00 | 4.88 | 0.00 | 98 | 1013.0 |
| 20260510051504 | 67 | 37 | 0.0 | 0.0 | 0.00 | 4.88 | 0.00 | 98 | 1013.2 |
| 20260510050004 | 68 | 101 | 0.0 | 3.0 | 0.00 | 4.88 | 0.00 | 98 | 1013.0 |
| 20260510044510 | 68 | 132 | 0.0 | 0.0 | 0.00 | 4.88 | 4.88 | 98 | 1013.0 |
| 20260510043029 | 68 | 143 | 0.0 | 0.0 | 0.00 | 4.88 | 4.88 | 98 | 1013.1 |
| 20260510041501 | 68 | 59 | 0.0 | 3.0 | 0.00 | 4.88 | 4.88 | 98 | 1012.8 |
| 20260510040010 | 68 | 74 | 0.0 | 0.0 | 0.00 | 4.88 | 4.88 | 98 | 1013.3 |
| 20260510034508 | 68 | 348 | 0.0 | 3.0 | 0.00 | 4.88 | 4.88 | 98 | 1013.7 |
| 20260510033012 | 68 | 360 | 1.0 | 2.0 | 0.00 | 4.88 | 4.88 | 98 | 1013.6 |
| 20260510031530 | 69 | 72 | 0.0 | 2.0 | 0.00 | 4.88 | 4.88 | 98 | 1013.5 |
| 20260510030006 | 69 | 139 | 0.0 | 0.0 | 0.01 | 4.88 | 4.88 | 98 | 1013.6 |
| 20260510024507 | 69 | 326 | 0.0 | 4.0 | 0.01 | 4.88 | 4.88 | 98 | 1013.6 |
| 20260510023007 | 69 | 277 | 1.0 | 4.0 | 0.02 | 4.88 | 4.88 | 98 | 1013.3 |
| 20260510021527 | 69 | 195 | 1.0 | 5.0 | 0.02 | 4.88 | 4.88 | 98 | 1012.7 |
| 20260510020003 | 69 | 158 | 2.0 | 6.0 | 0.01 | 4.87 | 4.87 | 98 | 1012.2 |
| 20260510014512 | 69 | 154 | 2.0 | 5.0 | 0.02 | 4.87 | 4.87 | 98 | 1012.0 |
| 20260510013006 | 69 | 9 | 0.0 | 4.0 | 0.01 | 4.86 | 4.86 | 98 | 1012.8 |
| 20260510011516 | 69 | 301 | 0.0 | 4.0 | 0.02 | 4.86 | 4.86 | 98 | 1012.5 |
| 20260510010032 | 69 | 146 | 1.0 | 3.0 | 0.03 | 4.86 | 4.86 | 98 | 1012.2 |
| 20260510004505 | 68 | 154 | 1.0 | 3.0 | 0.03 | 4.85 | 4.85 | 98 | 1012.2 |
| 20260510003004 | 68 | 157 | 2.0 | 5.0 | 0.05 | 4.85 | 4.85 | 98 | 1012.2 |
| 20260510001511 | 68 | 163 | 1.0 | 3.0 | 0.05 | 4.86 | 4.84 | 98 | 1012.3 |
| 20260510000017 | 68 | 132 | 0.0 | 0.0 | 0.04 | 4.88 | 4.83 | 98 | 1012.5 |
| 20260509234523 | 68 | 84 | 0.0 | 2.0 | 0.04 | 4.90 | 4.82 | 98 | 1012.8 |
| 20260509233006 | 68 | 180 | 1.0 | 2.0 | 0.02 | 4.88 | 4.80 | 98 | 1013.0 |
| 20260509231506 | 68 | 121 | 0.0 | 0.0 | 0.02 | 4.88 | 4.79 | 98 | 1012.8 |
| 20260509230023 | 68 | 226 | 0.0 | 2.0 | 0.02 | 4.90 | 4.79 | 97 | 1012.2 |
| 20260509224521 | 68 | 92 | 0.0 | 0.0 | 0.01 | 4.90 | 4.78 | 97 | 1011.6 |
| 20260509223005 | 68 | 84 | 1.0 | 4.0 | 0.01 | 4.90 | 4.78 | 97 | 1011.4 |
| 20260509221507 | 68 | 186 | 2.0 | 5.0 | 0.00 | 4.89 | 4.77 | 97 | 1012.0 |
| 20260509220011 | 68 | 205 | 0.0 | 2.0 | 0.00 | 4.90 | 4.77 | 97 | 1012.2 |
| 20260509214520 | 68 | 190 | 1.0 | 3.0 | 0.01 | 4.92 | 4.77 | 98 | 1012.2 |
| 20260509213028 | 68 | 200 | 0.0 | 5.0 | 0.02 | 4.98 | 4.77 | 98 | 1011.2 |
| 20260509211505 | 68 | 106 | 1.0 | 5.0 | 0.03 | 5.08 | 4.77 | 98 | 1010.8 |
| 20260509210010 | 68 | 139 | 2.0 | 7.0 | 0.07 | 5.28 | 4.77 | 98 | 1010.7 |
| 20260509204513 | 68 | 113 | 1.0 | 4.0 | 0.09 | 5.43 | 4.76 | 98 | 1011.1 |
| 20260509203004 | 68 | 200 | 0.0 | 6.0 | 0.13 | 5.54 | 4.75 | 98 | 1012.2 |
| 20260509201510 | 67 | 262 | 0.0 | 2.0 | 0.18 | 5.62 | 4.73 | 98 | 1012.2 |
| 20260509200008 | 67 | 167 | 1.0 | 4.0 | 0.19 | 5.61 | 4.69 | 98 | 1012.2 |
| 20260509194515 | 67 | 194 | 4.0 | 6.0 | 0.24 | 5.60 | 4.67 | 98 | 1012.2 |
| 20260509193023 | 68 | 159 | 0.0 | 5.0 | 0.22 | 5.55 | 4.62 | 98 | 1013.0 |
| 20260509191506 | 68 | 232 | 0.0 | 5.0 | 0.20 | 5.49 | 4.56 | 98 | 1012.8 |